Time,TemperatureF,DewpointF,PressureIn,WindDirection,WindDirectionDegrees,WindSpeedMPH,WindSpeedGustMPH,Humidity,HourlyPrecipIn,Conditions,Clouds,dailyrainin,SoftwareType,DateUTC
2013-07-01 00:04:00,75.5,72.0,29.90,SSE,168,0.0,2.0,89,0.00,,,0.00,weatherlink.com 1.10,2013-07-01 04:04:00,
2013-07-01 00:19:00,75.7,72.0,29.90,SSE,161,0.0,3.0,88,0.00,,,0.00,weatherlink.com 1.10,2013-07-01 04:19:00,
2013-07-01 00:34:00,75.6,72.0,29.90,South,184,0.0,1.0,89,0.00,,,0.00,weatherlink.com 1.10,2013-07-01 04:34:00,
2013-07-01 00:49:00,75.3,72.0,29.90,South,169,0.0,2.0,90,0.00,,,0.00,weatherlink.com 1.10,2013-07-01 04:49:00,
2013-07-01 01:04:00,75.2,72.0,29.90,South,174,1.0,4.0,90,0.00,,,0.00,weatherlink.com 1.10,2013-07-01 05:04:00,
2013-07-01 01:19:00,75.2,72.0,29.90,South,188,0.0,4.0,90,0.00,,,0.00,weatherlink.com 1.10,2013-07-01 05:19:00,
2013-07-01 01:34:00,75.3,72.0,29.90,South,190,1.0,3.0,90,0.00,,,0.00,weatherlink.com 1.10,2013-07-01 05:34:00,
2013-07-01 01:49:00,75.3,72.0,29.90,South,184,0.0,4.0,89,0.00,,,0.00,weatherlink.com 1.10,2013-07-01 05:49:00,
2013-07-01 02:04:00,75.3,72.0,29.90,South,190,2.0,2.0,89,0.00,,,0.00,weatherlink.com 1.10,2013-07-01 06:04:00,
2013-07-01 02:19:00,75.2,72.0,29.90,SSW,197,0.0,3.0,89,0.00,,,0.00,weatherlink.com 1.10,2013-07-01 06:19:00,
2013-07-01 02:34:00,75.1,72.0,29.90,SSE,165,0.0,0.0,89,0.00,,,0.00,weatherlink.com 1.10,2013-07-01 06:34:00,
2013-07-01 02:49:00,74.9,72.0,29.89,South,184,0.0,3.0,90,0.00,,,0.00,weatherlink.com 1.10,2013-07-01 06:49:00,
2013-07-01 03:04:00,74.8,72.0,29.89,South,191,0.0,2.0,90,0.00,,,0.00,weatherlink.com 1.10,2013-07-01 07:04:00,
2013-07-01 03:19:00,74.8,72.0,29.89,South,181,0.0,3.0,90,0.00,,,0.00,weatherlink.com 1.10,2013-07-01 07:19:00,
2013-07-01 03:34:00,74.8,71.0,29.89,SSE,158,0.0,4.0,89,0.00,,,0.00,weatherlink.com 1.10,2013-07-01 07:34:00,
2013-07-01 03:49:00,74.8,71.0,29.89,SSE,160,3.0,4.0,89,0.00,,,0.00,weatherlink.com 1.10,2013-07-01 07:49:00,
2013-07-01 04:04:00,74.7,71.0,29.89,SSE,149,0.0,3.0,89,0.00,,,0.00,weatherlink.com 1.10,2013-07-01 08:04:00,
2013-07-01 04:19:00,74.7,71.0,29.89,South,174,0.0,3.0,89,0.00,,,0.00,weatherlink.com 1.10,2013-07-01 08:19:00,
2013-07-01 04:34:00,74.7,71.0,29.90,South,169,0.0,1.0,89,0.00,,,0.00,weatherlink.com 1.10,2013-07-01 08:34:00,
2013-07-01 04:49:00,74.8,71.0,29.90,South,187,0.0,3.0,89,0.00,,,0.00,weatherlink.com 1.10,2013-07-01 08:49:00,
2013-07-01 05:04:00,74.8,71.0,29.90,SSE,162,0.0,2.0,89,0.00,,,0.00,weatherlink.com 1.10,2013-07-01 09:04:00,
2013-07-01 05:19:00,74.8,72.0,29.91,South,183,0.0,2.0,90,0.00,,,0.00,weatherlink.com 1.10,2013-07-01 09:19:00,
2013-07-01 05:34:00,74.8,72.0,29.91,SSE,163,0.0,2.0,90,0.00,,,0.00,weatherlink.com 1.10,2013-07-01 09:34:00,
2013-07-01 05:49:00,74.8,72.0,29.91,South,183,0.0,1.0,90,0.00,,,0.00,weatherlink.com 1.10,2013-07-01 09:49:00,
2013-07-01 06:04:00,74.8,72.0,29.92,South,179,2.0,3.0,90,0.00,,,0.00,weatherlink.com 1.10,2013-07-01 10:04:00,
2013-07-01 06:19:00,74.8,72.0,29.92,SSW,197,0.0,2.0,90,0.00,,,0.00,weatherlink.com 1.10,2013-07-01 10:19:00,
2013-07-01 06:34:00,74.8,72.0,29.92,SSW,204,0.0,3.0,90,0.00,,,0.00,weatherlink.com 1.10,2013-07-01 10:34:00,
2013-07-01 06:49:00,74.9,72.0,29.92,SSW,204,0.0,1.0,90,0.00,,,0.00,weatherlink.com 1.10,2013-07-01 10:49:00,
2013-07-01 07:04:00,75.1,72.0,29.92,South,176,0.0,3.0,90,0.00,,,0.00,weatherlink.com 1.10,2013-07-01 11:04:00,
2013-07-01 07:19:00,75.3,72.0,29.92,SSW,197,0.0,3.0,90,0.00,,,0.00,weatherlink.com 1.10,2013-07-01 11:19:00,
2013-07-01 07:34:00,75.6,72.0,29.93,South,184,0.0,4.0,89,0.00,,,0.00,weatherlink.com 1.10,2013-07-01 11:34:00,
2013-07-01 07:49:00,75.8,72.0,29.93,South,169,1.0,4.0,89,0.00,,,0.00,weatherlink.com 1.10,2013-07-01 11:49:00,
2013-07-01 08:04:00,76.1,73.0,29.94,SSW,200,0.0,4.0,89,0.00,,,0.00,weatherlink.com 1.10,2013-07-01 12:04:00,
2013-07-01 08:19:00,76.4,73.0,29.94,South,172,1.0,4.0,89,0.00,,,0.00,weatherlink.com 1.10,2013-07-01 12:19:00,
2013-07-01 08:35:00,76.8,73.0,29.93,SSW,204,1.0,2.0,88,0.00,,,0.00,weatherlink.com 1.10,2013-07-01 12:35:00,
2013-07-01 08:50:00,77.5,73.0,29.93,SW,222,0.0,3.0,87,0.00,,,0.00,weatherlink.com 1.10,2013-07-01 12:50:00,
2013-07-01 09:05:00,78.0,74.0,29.93,SSW,201,0.0,3.0,86,0.00,,,0.00,weatherlink.com 1.10,2013-07-01 13:05:00,
2013-07-01 09:20:00,77.6,74.0,29.92,SSW,193,2.0,5.0,87,0.00,,,0.00,weatherlink.com 1.10,2013-07-01 13:20:00,
2013-07-01 09:35:00,77.2,73.0,29.90,South,177,1.0,6.0,87,0.00,,,0.00,weatherlink.com 1.10,2013-07-01 13:35:00,
2013-07-01 09:50:00,73.9,72.0,29.93,SSE,153,2.0,9.0,93,0.66,,,0.66,weatherlink.com 1.10,2013-07-01 13:50:00,
2013-07-01 10:05:00,73.5,72.0,29.95,SE,143,2.0,6.0,95,0.83,,,0.83,weatherlink.com 1.10,2013-07-01 14:05:00,
2013-07-01 10:20:00,73.3,72.0,29.95,SSW,197,2.0,3.0,96,0.96,,,0.96,weatherlink.com 1.10,2013-07-01 14:20:00,
2013-07-01 10:35:00,73.2,72.0,29.96,ESE,123,0.0,2.0,96,1.01,,,1.03,weatherlink.com 1.10,2013-07-01 14:35:00,
2013-07-01 10:50:00,72.7,72.0,29.97,ENE,64,0.0,1.0,96,0.52,,,1.20,weatherlink.com 1.10,2013-07-01 14:50:00,
2013-07-01 11:05:00,72.5,72.0,29.97,SE,146,0.0,0.0,97,0.43,,,1.28,weatherlink.com 1.10,2013-07-01 15:05:00,
2013-07-01 11:20:00,72.6,72.0,29.96,SE,145,0.0,0.0,97,0.36,,,1.32,weatherlink.com 1.10,2013-07-01 15:20:00,
2013-07-01 11:35:00,73.1,72.0,29.96,SSE,147,0.0,1.0,97,0.32,,,1.35,weatherlink.com 1.10,2013-07-01 15:35:00,
2013-07-01 11:50:00,74.6,74.0,29.96,SSW,200,0.0,2.0,98,0.14,,,1.35,weatherlink.com 1.10,2013-07-01 15:50:00,
2013-07-01 12:05:00,75.2,74.0,29.96,South,181,0.0,1.0,97,0.07,,,1.35,weatherlink.com 1.10,2013-07-01 16:05:00,
2013-07-01 12:20:00,75.2,74.0,29.97,SSE,153,2.0,2.0,95,0.03,,,1.35,weatherlink.com 1.10,2013-07-01 16:20:00,
2013-07-01 12:35:00,75.3,74.0,29.97,SSW,204,1.0,4.0,95,0.00,,,1.35,weatherlink.com 1.10,2013-07-01 16:35:00,
2013-07-01 12:50:00,75.9,74.0,29.97,SSW,210,3.0,4.0,95,0.00,,,1.35,weatherlink.com 1.10,2013-07-01 16:50:00,
2013-07-01 13:05:00,76.2,74.0,29.97,South,180,2.0,4.0,94,0.00,,,1.35,weatherlink.com 1.10,2013-07-01 17:05:00,
2013-07-01 13:20:00,75.9,74.0,29.97,South,172,1.0,3.0,94,0.00,,,1.35,weatherlink.com 1.10,2013-07-01 17:20:00,
2013-07-01 13:35:00,76.2,75.0,29.97,South,176,0.0,4.0,95,0.00,,,1.35,weatherlink.com 1.10,2013-07-01 17:35:00,
2013-07-01 13:50:00,76.0,75.0,29.97,SSW,206,0.0,3.0,95,0.00,,,1.35,weatherlink.com 1.10,2013-07-01 17:50:00,
2013-07-01 14:20:00,75.1,74.0,29.97,South,179,2.0,5.0,96,0.08,,,1.43,weatherlink.com 1.10,2013-07-01 18:20:00,
2013-07-01 14:35:00,74.5,73.0,29.97,South,172,1.0,4.0,96,0.12,,,1.47,weatherlink.com 1.10,2013-07-01 18:35:00,
2013-07-01 14:50:00,74.6,73.0,29.97,South,187,1.0,3.0,96,0.15,,,1.50,weatherlink.com 1.10,2013-07-01 18:50:00,
2013-07-01 15:05:00,74.8,74.0,29.97,South,183,0.0,4.0,96,0.12,,,1.50,weatherlink.com 1.10,2013-07-01 19:05:00,
2013-07-01 15:20:00,75.1,74.0,29.96,SSW,194,1.0,6.0,95,0.07,,,1.50,weatherlink.com 1.10,2013-07-01 19:20:00,
2013-07-01 15:35:00,75.9,74.0,29.96,SW,225,0.0,2.0,95,0.03,,,1.50,weatherlink.com 1.10,2013-07-01 19:35:00,
2013-07-01 15:50:00,75.7,74.0,29.96,SW,218,1.0,3.0,94,0.00,,,1.50,weatherlink.com 1.10,2013-07-01 19:50:00,
2013-07-01 16:05:00,75.5,74.0,29.96,SSE,156,1.0,6.0,94,0.00,,,1.50,weatherlink.com 1.10,2013-07-01 20:05:00,
2013-07-01 16:20:00,75.1,73.0,29.96,SSW,195,0.0,7.0,94,0.01,,,1.51,weatherlink.com 1.10,2013-07-01 20:20:00,
2013-07-01 16:35:00,74.9,73.0,29.96,SSE,160,2.0,3.0,94,0.01,,,1.51,weatherlink.com 1.10,2013-07-01 20:35:00,
2013-07-01 16:50:00,75.2,73.0,29.96,South,183,0.0,4.0,94,0.01,,,1.51,weatherlink.com 1.10,2013-07-01 20:50:00,
2013-07-01 17:05:00,75.6,74.0,29.96,South,174,1.0,4.0,94,0.01,,,1.51,weatherlink.com 1.10,2013-07-01 21:05:00,
2013-07-01 17:20:00,76.1,74.0,29.96,South,179,1.0,5.0,93,0.00,,,1.51,weatherlink.com 1.10,2013-07-01 21:20:00,
2013-07-01 17:35:00,76.3,74.0,29.96,South,171,2.0,7.0,92,0.00,,,1.51,weatherlink.com 1.10,2013-07-01 21:35:00,
2013-07-01 17:50:00,76.4,74.0,29.97,South,188,0.0,5.0,92,0.00,,,1.51,weatherlink.com 1.10,2013-07-01 21:50:00,
2013-07-01 18:05:00,75.8,73.0,29.97,South,172,1.0,4.0,92,0.00,,,1.51,weatherlink.com 1.10,2013-07-01 22:05:00,
2013-07-01 18:20:00,75.6,73.0,29.97,SSE,159,0.0,4.0,92,0.00,,,1.51,weatherlink.com 1.10,2013-07-01 22:20:00,
2013-07-01 18:35:00,75.5,73.0,29.97,SSW,213,0.0,2.0,92,0.00,,,1.51,weatherlink.com 1.10,2013-07-01 22:35:00,
2013-07-01 18:50:00,75.6,73.0,29.98,South,188,1.0,3.0,92,0.00,,,1.51,weatherlink.com 1.10,2013-07-01 22:50:00,
2013-07-01 19:05:00,75.3,73.0,29.98,South,179,2.0,3.0,92,0.00,,,1.51,weatherlink.com 1.10,2013-07-01 23:05:00,
2013-07-01 19:20:00,75.0,73.0,29.99,SSE,167,1.0,4.0,92,0.00,,,1.51,weatherlink.com 1.10,2013-07-01 23:20:00,
2013-07-01 19:35:00,74.9,73.0,30.00,South,183,1.0,4.0,92,0.00,,,1.51,weatherlink.com 1.10,2013-07-01 23:35:00,
2013-07-01 19:50:00,75.0,73.0,30.00,South,173,0.0,4.0,92,0.00,,,1.51,weatherlink.com 1.10,2013-07-01 23:50:00,
2013-07-01 20:05:00,74.9,73.0,30.00,SSW,194,0.0,4.0,93,0.00,,,1.51,weatherlink.com 1.10,2013-07-02 00:05:00,
2013-07-01 20:20:00,75.0,73.0,30.00,SSE,161,1.0,4.0,93,0.00,,,1.51,weatherlink.com 1.10,2013-07-02 00:20:00,
2013-07-01 20:35:00,75.1,73.0,30.00,South,176,0.0,5.0,93,0.00,,,1.51,weatherlink.com 1.10,2013-07-02 00:35:00,
2013-07-01 20:50:00,75.0,73.0,30.00,SSW,194,0.0,4.0,93,0.00,,,1.51,weatherlink.com 1.10,2013-07-02 00:50:00,
2013-07-01 21:05:00,75.0,73.0,30.01,South,174,0.0,3.0,93,0.00,,,1.51,weatherlink.com 1.10,2013-07-02 01:05:00,
2013-07-01 21:21:00,75.3,73.0,30.01,SSE,162,2.0,4.0,92,0.00,,,1.51,weatherlink.com 1.10,2013-07-02 01:21:00,
2013-07-01 21:35:00,75.6,73.0,30.02,SSE,159,3.0,3.0,92,0.00,,,1.51,weatherlink.com 1.10,2013-07-02 01:35:00,
2013-07-01 21:50:00,75.8,73.0,30.02,South,171,0.0,3.0,90,0.00,,,1.51,weatherlink.com 1.10,2013-07-02 01:50:00,
2013-07-01 22:05:00,75.8,73.0,30.02,SE,132,1.0,3.0,90,0.00,,,1.51,weatherlink.com 1.10,2013-07-02 02:05:00,
2013-07-01 22:20:00,75.9,73.0,30.03,SSE,160,0.0,3.0,90,0.00,,,1.51,weatherlink.com 1.10,2013-07-02 02:20:00,
2013-07-01 22:36:00,75.9,73.0,30.02,South,181,1.0,5.0,90,0.00,,,1.51,weatherlink.com 1.10,2013-07-02 02:36:00,
2013-07-01 22:51:00,75.8,73.0,30.03,South,169,3.0,7.0,90,0.00,,,1.51,weatherlink.com 1.10,2013-07-02 02:51:00,
2013-07-01 23:06:00,75.7,73.0,30.03,SE,141,1.0,5.0,90,0.00,,,1.51,weatherlink.com 1.10,2013-07-02 03:06:00,
2013-07-01 23:21:00,75.7,73.0,30.03,South,180,2.0,4.0,90,0.00,,,1.51,weatherlink.com 1.10,2013-07-02 03:21:00,
2013-07-01 23:36:00,75.7,73.0,30.04,South,174,0.0,6.0,90,0.00,,,1.51,weatherlink.com 1.10,2013-07-02 03:36:00,
2013-07-01 23:51:00,75.7,73.0,30.04,SSE,160,0.0,4.0,90,0.00,,,1.51,weatherlink.com 1.10,2013-07-02 03:51:00,